| time (UTC) | temp C | wind direction | speed KPH | gust KPH | rain 1hr cm | rain 24hr cm | rain mn cm | humidity % | barometer mb |
| 20260504160251 | 10 | 264 | 1.6 | 1.6 | 0.00 | 0.00 | 0.00 | 50 | 1025.5 |
| 20260504150716 | 8 | 275 | 1.6 | 1.6 | 0.00 | 0.00 | 0.00 | 53 | 1025.6 |
| 20260504150213 | 8 | 248 | 0.0 | 0.0 | 0.00 | 0.00 | 0.00 | 53 | 1025.5 |
| 20260504141142 | 8 | 21 | 1.6 | 1.6 | 0.00 | 0.00 | 0.00 | 54 | 1026.1 |
| 20260504140639 | 8 | 302 | 1.6 | 1.6 | 0.00 | 0.00 | 0.00 | 54 | 1026.0 |
| 20260504140134 | 8 | 274 | 1.6 | 1.6 | 0.00 | 0.00 | 0.00 | 54 | 1026.2 |
| 20260504130602 | 7 | 228 | 0.0 | 0.0 | 0.00 | 0.00 | 0.00 | 53 | 1025.8 |
| 20260504110450 | 7 | 325 | 9.7 | 12.9 | 0.00 | 0.00 | 0.00 | 47 | 1024.5 |
| 20260504100412 | 8 | 310 | 6.4 | 9.7 | 0.00 | 0.00 | 0.00 | 45 | 1022.2 |
| 20260504081806 | 10 | 256 | 6.4 | 6.4 | 0.00 | 0.00 | 0.00 | 47 | 1019.4 |
| 20260504081302 | 10 | 257 | 4.8 | 4.8 | 0.00 | 0.00 | 0.00 | 47 | 1019.6 |
| 20260504080759 | 10 | 240 | 4.8 | 4.8 | 0.00 | 0.00 | 0.00 | 47 | 1019.3 |
| 20260504080255 | 10 | 236 | 4.8 | 4.8 | 0.00 | 0.00 | 0.00 | 47 | 1019.4 |
| 20260504070223 | 11 | 274 | 9.7 | 9.7 | 0.00 | 0.00 | 0.00 | 45 | 1019.0 |
| 20260504060143 | 12 | 236 | 6.4 | 6.4 | 0.00 | 0.00 | 0.00 | 41 | 1018.8 |
| 20260504050611 | 15 | 273 | 8.0 | 9.7 | 0.00 | 0.00 | 0.00 | 35 | 1018.9 |
| 20260504050108 | 14 | 274 | 9.7 | 9.7 | 0.00 | 0.00 | 0.00 | 35 | 1018.9 |
| 20260504045605 | 15 | 270 | 4.8 | 4.8 | 0.00 | 0.00 | 0.00 | 36 | 1018.8 |
| 20260504045100 | 16 | 258 | 3.2 | 3.2 | 0.00 | 0.00 | 0.00 | 31 | 1018.9 |
| 20260504044558 | 15 | 279 | 6.4 | 9.7 | 0.00 | 0.00 | 0.00 | 31 | 1018.8 |
| 20260504044055 | 16 | 272 | 6.4 | 6.4 | 0.00 | 0.00 | 0.00 | 33 | 1019.0 |
| 20260504043552 | 16 | 294 | 6.4 | 9.7 | 0.00 | 0.00 | 0.00 | 29 | 1018.8 |
| 20260504043049 | 15 | 266 | 1.6 | 1.6 | 0.00 | 0.00 | 0.00 | 32 | 1018.9 |
| 20260504042546 | 16 | 291 | 9.7 | 9.7 | 0.00 | 0.00 | 0.00 | 32 | 1018.9 |
| 20260504042043 | 16 | 274 | 3.2 | 3.2 | 0.00 | 0.00 | 0.00 | 29 | 1018.9 |
| 20260504041539 | 16 | 291 | 6.4 | 6.4 | 0.00 | 0.00 | 0.00 | 28 | 1018.7 |
| 20260504041035 | 16 | 335 | 3.2 | 4.8 | 0.00 | 0.00 | 0.00 | 29 | 1018.9 |
| 20260504040533 | 17 | 294 | 1.6 | 1.6 | 0.00 | 0.00 | 0.00 | 29 | 1018.8 |
| 20260504040029 | 17 | 320 | 4.8 | 4.8 | 0.00 | 0.00 | 0.00 | 29 | 1018.6 |
| 20260504035526 | 16 | 325 | 3.2 | 3.2 | 0.00 | 0.00 | 0.00 | 30 | 1018.7 |
| 20260504035022 | 16 | 276 | 3.2 | 3.2 | 0.00 | 0.00 | 0.00 | 30 | 1018.8 |
| 20260504034520 | 16 | 314 | 4.8 | 4.8 | 0.00 | 0.00 | 0.00 | 31 | 1018.8 |
| 20260504034017 | 16 | 309 | 6.4 | 6.4 | 0.00 | 0.00 | 0.00 | 31 | 1018.8 |
| 20260504033515 | 17 | 312 | 4.8 | 4.8 | 0.00 | 0.00 | 0.00 | 31 | 1018.6 |
| 20260504033012 | 17 | 344 | 4.8 | 4.8 | 0.00 | 0.00 | 0.00 | 31 | 1018.7 |
| 20260504032509 | 17 | 307 | 3.2 | 3.2 | 0.00 | 0.00 | 0.00 | 31 | 1018.6 |
| 20260504032005 | 16 | 336 | 3.2 | 4.8 | 0.00 | 0.00 | 0.00 | 31 | 1018.5 |
| 20260504031502 | 16 | 247 | 0.0 | 0.0 | 0.00 | 0.00 | 0.00 | 33 | 1018.5 |
| 20260504030959 | 16 | 255 | 0.0 | 0.0 | 0.00 | 0.00 | 0.00 | 32 | 1018.3 |
| 20260504030456 | 16 | 219 | 1.6 | 1.6 | 0.00 | 0.00 | 0.00 | 32 | 1018.6 |
| 20260504025952 | 16 | 184 | 3.2 | 3.2 | 0.00 | 0.00 | 0.00 | 33 | 1018.5 |
| 20260504025449 | 17 | 191 | 3.2 | 3.2 | 0.00 | 0.00 | 0.00 | 32 | 1018.5 |
| 20260504024946 | 17 | 205 | 3.2 | 3.2 | 0.00 | 0.00 | 0.00 | 31 | 1018.3 |
| 20260504024443 | 17 | 153 | 3.2 | 4.8 | 0.00 | 0.00 | 0.00 | 31 | 1018.3 |
| 20260504023940 | 17 | 219 | 3.2 | 3.2 | 0.00 | 0.00 | 0.00 | 31 | 1018.2 |
| 20260504023436 | 18 | 283 | 3.2 | 3.2 | 0.00 | 0.00 | 0.00 | 29 | 1018.2 |
| 20260504022932 | 19 | 329 | 6.4 | 6.4 | 0.00 | 0.00 | 0.00 | 26 | 1018.2 |
| 20260504022429 | 20 | 295 | 6.4 | 6.4 | 0.00 | 0.00 | 0.00 | 26 | 1018.0 |
| 20260504021925 | 20 | 304 | 9.7 | 11.3 | 0.00 | 0.00 | 0.00 | 26 | 1018.0 |
| 20260504021423 | 20 | 252 | 8.0 | 9.7 | 0.00 | 0.00 | 0.00 | 27 | 1018.0 |
| 20260504020920 | 20 | 283 | 4.8 | 4.8 | 0.00 | 0.00 | 0.00 | 26 | 1017.8 |
| 20260504020416 | 20 | 263 | 9.7 | 11.3 | 0.00 | 0.00 | 0.00 | 25 | 1018.0 |
| 20260504015913 | 20 | 274 | 9.7 | 11.3 | 0.00 | 0.00 | 0.00 | 25 | 1017.9 |
| 20260504015409 | 20 | 262 | 11.3 | 12.9 | 0.00 | 0.00 | 0.00 | 25 | 1017.9 |
| 20260504014905 | 21 | 259 | 14.5 | 16.1 | 0.00 | 0.00 | 0.00 | 24 | 1017.9 |
| 20260504014401 | 21 | 265 | 16.1 | 17.7 | 0.00 | 0.00 | 0.00 | 24 | 1017.9 |
| 20260504013859 | 21 | 275 | 9.7 | 11.3 | 0.00 | 0.00 | 0.00 | 25 | 1018.0 |
| 20260504013357 | 21 | 287 | 14.5 | 16.1 | 0.00 | 0.00 | 0.00 | 24 | 1018.0 |
| 20260504012853 | 21 | 297 | 14.5 | 20.9 | 0.00 | 0.00 | 0.00 | 23 | 1018.2 |
| 20260504012351 | 21 | 256 | 12.9 | 16.1 | 0.00 | 0.00 | 0.00 | 24 | 1018.0 |
| 20260504011848 | 22 | 249 | 16.1 | 20.9 | 0.00 | 0.00 | 0.00 | 23 | 1018.0 |
| 20260504011344 | 22 | 259 | 14.5 | 17.7 | 0.00 | 0.00 | 0.00 | 22 | 1018.0 |
| 20260504010841 | 22 | 278 | 11.3 | 12.9 | 0.00 | 0.00 | 0.00 | 23 | 1018.1 |
| 20260504010336 | 22 | 281 | 11.3 | 12.9 | 0.00 | 0.00 | 0.00 | 23 | 1018.0 |
| 20260504005833 | 22 | 265 | 25.7 | 29.0 | 0.00 | 0.00 | 0.00 | 22 | 1017.8 |
| 20260504005330 | 22 | 295 | 14.5 | 14.5 | 0.00 | 0.00 | 0.00 | 22 | 1018.5 |
| 20260504004827 | 22 | 265 | 16.1 | 17.7 | 0.00 | 0.00 | 0.00 | 21 | 1018.2 |
| 20260504004325 | 22 | 275 | 19.3 | 25.7 | 0.00 | 0.00 | 0.00 | 21 | 1018.6 |
| 20260504003821 | 23 | 268 | 12.9 | 20.9 | 0.00 | 0.00 | 0.00 | 22 | 1018.2 |
| 20260504003318 | 22 | 289 | 16.1 | 16.1 | 0.00 | 0.00 | 0.00 | 21 | 1018.5 |
| 20260504002815 | 22 | 311 | 16.1 | 16.1 | 0.00 | 0.00 | 0.00 | 21 | 1018.5 |
| 20260504002312 | 23 | 225 | 19.3 | 22.5 | 0.00 | 0.00 | 0.00 | 22 | 1018.1 |
| 20260504001809 | 22 | 276 | 17.7 | 20.9 | 0.00 | 0.00 | 0.00 | 21 | 1018.5 |
| 20260504001306 | 22 | 249 | 20.9 | 27.4 | 0.00 | 0.00 | 0.00 | 21 | 1018.5 |
| 20260504000803 | 23 | 307 | 17.7 | 22.5 | 0.00 | 0.00 | 0.00 | 21 | 1018.7 |
| 20260504000300 | 23 | 261 | 17.7 | 20.9 | 0.00 | 0.00 | 0.00 | 21 | 1018.7 |
| 20260503235758 | 22 | 258 | 8.0 | 11.3 | 0.00 | 0.00 | 0.00 | 21 | 1018.7 |
| 20260503235255 | 23 | 320 | 9.7 | 9.7 | 0.00 | 0.00 | 0.00 | 22 | 1018.7 |
| 20260503234753 | 22 | 241 | 11.3 | 14.5 | 0.00 | 0.00 | 0.00 | 22 | 1018.9 |
| 20260503234251 | 23 | 257 | 12.9 | 14.5 | 0.00 | 0.00 | 0.00 | 20 | 1018.8 |
| 20260503233748 | 23 | 294 | 16.1 | 20.9 | 0.00 | 0.00 | 0.00 | 21 | 1018.8 |
| 20260503233243 | 23 | 294 | 12.9 | 14.5 | 0.00 | 0.00 | 0.00 | 21 | 1018.8 |
| 20260503232741 | 23 | 296 | 22.5 | 25.7 | 0.00 | 0.00 | 0.00 | 21 | 1018.9 |
| 20260503232238 | 22 | 265 | 9.7 | 11.3 | 0.00 | 0.00 | 0.00 | 19 | 1018.8 |
| 20260503231736 | 23 | 268 | 17.7 | 20.9 | 0.00 | 0.00 | 0.00 | 20 | 1018.8 |
| 20260503231232 | 23 | 270 | 12.9 | 16.1 | 0.00 | 0.00 | 0.00 | 22 | 1018.9 |
| 20260503230728 | 23 | 253 | 17.7 | 20.9 | 0.00 | 0.00 | 0.00 | 20 | 1019.0 |
| 20260503230226 | 23 | 302 | 12.9 | 14.5 | 0.00 | 0.00 | 0.00 | 21 | 1019.0 |
| 20260503225723 | 23 | 308 | 17.7 | 20.9 | 0.00 | 0.00 | 0.00 | 21 | 1019.1 |
| 20260503225223 | 23 | 278 | 14.5 | 16.1 | 0.00 | 0.00 | 0.00 | 21 | 1018.9 |
| 20260503224720 | 22 | 291 | 6.4 | 9.7 | 0.00 | 0.00 | 0.00 | 20 | 1019.1 |
| 20260503224218 | 23 | 281 | 16.1 | 20.9 | 0.00 | 0.00 | 0.00 | 21 | 1019.4 |
| 20260503223716 | 22 | 282 | 9.7 | 12.9 | 0.00 | 0.00 | 0.00 | 23 | 1019.3 |
| 20260503223213 | 22 | 329 | 12.9 | 14.5 | 0.00 | 0.00 | 0.00 | 22 | 1019.3 |
| 20260503222709 | 23 | 334 | 17.7 | 22.5 | 0.00 | 0.00 | 0.00 | 20 | 1019.5 |
| 20260503222207 | 22 | 312 | 22.5 | 25.7 | 0.00 | 0.00 | 0.00 | 21 | 1019.3 |
| 20260503221706 | 22 | 309 | 9.7 | 12.9 | 0.00 | 0.00 | 0.00 | 21 | 1019.6 |
| 20260503221203 | 23 | 297 | 14.5 | 17.7 | 0.00 | 0.00 | 0.00 | 20 | 1019.5 |
| 20260503220659 | 23 | 286 | 16.1 | 17.7 | 0.00 | 0.00 | 0.00 | 21 | 1019.7 |
| 20260503220156 | 22 | 268 | 17.7 | 20.9 | 0.00 | 0.00 | 0.00 | 22 | 1019.7 |
| 20260503215653 | 22 | 280 | 11.3 | 14.5 | 0.00 | 0.00 | 0.00 | 25 | 1019.7 |
| 20260503215149 | 22 | 265 | 22.5 | 25.7 | 0.00 | 0.00 | 0.00 | 22 | 1019.9 |
| 20260503214648 | 22 | 341 | 6.4 | 9.7 | 0.00 | 0.00 | 0.00 | 20 | 1020.0 |
| 20260503214143 | 23 | 295 | 17.7 | 20.9 | 0.00 | 0.00 | 0.00 | 22 | 1020.2 |
| 20260503213637 | 23 | 284 | 9.7 | 12.9 | 0.00 | 0.00 | 0.00 | 23 | 1020.2 |
| 20260503213133 | 23 | 257 | 9.7 | 11.3 | 0.00 | 0.00 | 0.00 | 25 | 1020.2 |
| 20260503212631 | 22 | 282 | 17.7 | 20.9 | 0.00 | 0.00 | 0.00 | 22 | 1020.4 |
| 20260503212128 | 22 | 260 | 14.5 | 17.7 | 0.00 | 0.00 | 0.00 | 24 | 1020.6 |
| 20260503211626 | 22 | 320 | 22.5 | 29.0 | 0.00 | 0.00 | 0.00 | 22 | 1020.7 |
| 20260503211121 | 22 | 300 | 16.1 | 22.5 | 0.00 | 0.00 | 0.00 | 22 | 1020.8 |
| 20260503210618 | 22 | 291 | 8.0 | 9.7 | 0.00 | 0.00 | 0.00 | 24 | 1020.6 |
| 20260503210115 | 22 | 264 | 11.3 | 14.5 | 0.00 | 0.00 | 0.00 | 24 | 1020.8 |
| 20260503205610 | 21 | 262 | 12.9 | 14.5 | 0.00 | 0.00 | 0.00 | 26 | 1020.7 |
| 20260503205107 | 22 | 289 | 25.7 | 27.4 | 0.00 | 0.00 | 0.00 | 25 | 1021.0 |
| 20260503204604 | 22 | 264 | 11.3 | 14.5 | 0.00 | 0.00 | 0.00 | 24 | 1020.8 |
| 20260503204101 | 21 | 309 | 24.1 | 27.4 | 0.00 | 0.00 | 0.00 | 25 | 1021.1 |
| 20260503203558 | 21 | 273 | 11.3 | 12.9 | 0.00 | 0.00 | 0.00 | 26 | 1021.2 |
| 20260503203055 | 22 | 269 | 14.5 | 20.9 | 0.00 | 0.00 | 0.00 | 28 | 1021.2 |
| 20260503202553 | 21 | 299 | 6.4 | 6.4 | 0.00 | 0.00 | 0.00 | 25 | 1021.3 |
| 20260503202051 | 22 | 262 | 12.9 | 17.7 | 0.00 | 0.00 | 0.00 | 27 | 1021.1 |
| 20260503201549 | 22 | 339 | 12.9 | 12.9 | 0.00 | 0.00 | 0.00 | 26 | 1021.5 |
| 20260503201046 | 21 | 263 | 19.3 | 22.5 | 0.00 | 0.00 | 0.00 | 24 | 1021.4 |
| 20260503200542 | 22 | 273 | 9.7 | 11.3 | 0.00 | 0.00 | 0.00 | 25 | 1021.4 |
| 20260503200039 | 21 | 278 | 11.3 | 12.9 | 0.00 | 0.00 | 0.00 | 25 | 1021.5 |
| 20260503195536 | 21 | 276 | 25.7 | 33.8 | 0.00 | 0.00 | 0.00 | 25 | 1021.6 |
| 20260503195033 | 21 | 307 | 16.1 | 22.5 | 0.00 | 0.00 | 0.00 | 27 | 1021.8 |
| 20260503194530 | 21 | 342 | 14.5 | 17.7 | 0.00 | 0.00 | 0.00 | 27 | 1021.8 |
| 20260503194029 | 21 | 303 | 11.3 | 14.5 | 0.00 | 0.00 | 0.00 | 28 | 1022.0 |
| 20260503193527 | 21 | 276 | 12.9 | 14.5 | 0.00 | 0.00 | 0.00 | 27 | 1022.0 |
| 20260503193022 | 21 | 240 | 16.1 | 16.1 | 0.00 | 0.00 | 0.00 | 28 | 1022.1 |
| 20260503192518 | 20 | 309 | 8.0 | 9.7 | 0.00 | 0.00 | 0.00 | 29 | 1022.3 |
| 20260503192014 | 21 | 297 | 9.7 | 11.3 | 0.00 | 0.00 | 0.00 | 28 | 1022.1 |
| 20260503191511 | 20 | 233 | 12.9 | 14.5 | 0.00 | 0.00 | 0.00 | 31 | 1022.3 |
| 20260503191008 | 21 | 253 | 9.7 | 9.7 | 0.00 | 0.00 | 0.00 | 32 | 1022.5 |
| 20260503190505 | 20 | 298 | 9.7 | 11.3 | 0.00 | 0.00 | 0.00 | 33 | 1022.5 |
| 20260503190002 | 20 | 20 | 3.2 | 4.8 | 0.00 | 0.00 | 0.00 | 29 | 1022.8 |
| 20260503185458 | 21 | 307 | 17.7 | 17.7 | 0.00 | 0.00 | 0.00 | 30 | 1022.9 |
| 20260503184957 | 21 | 269 | 11.3 | 14.5 | 0.00 | 0.00 | 0.00 | 32 | 1023.0 |
| 20260503184454 | 20 | 293 | 9.7 | 11.3 | 0.00 | 0.00 | 0.00 | 30 | 1023.1 |
| 20260503183950 | 20 | 299 | 12.9 | 14.5 | 0.00 | 0.00 | 0.00 | 31 | 1023.1 |
| 20260503183447 | 20 | 278 | 12.9 | 14.5 | 0.00 | 0.00 | 0.00 | 31 | 1023.2 |
| 20260503182944 | 20 | 269 | 9.7 | 11.3 | 0.00 | 0.00 | 0.00 | 31 | 1023.2 |
| 20260503182443 | 20 | 285 | 17.7 | 20.9 | 0.00 | 0.00 | 0.00 | 29 | 1023.2 |
| 20260503181940 | 20 | 289 | 8.0 | 9.7 | 0.00 | 0.00 | 0.00 | 33 | 1023.5 |
| 20260503181437 | 21 | 358 | 8.0 | 11.3 | 0.00 | 0.00 | 0.00 | 31 | 1023.3 |
| 20260503180933 | 20 | 227 | 4.8 | 6.4 | 0.00 | 0.00 | 0.00 | 31 | 1023.3 |
| 20260503180432 | 20 | 277 | 3.2 | 4.8 | 0.00 | 0.00 | 0.00 | 35 | 1023.3 |
| 20260503175928 | 19 | 220 | 0.0 | 0.0 | 0.00 | 0.00 | 0.00 | 35 | 1023.8 |
| 20260503175426 | 19 | 26 | 4.8 | 6.4 | 0.00 | 0.00 | 0.00 | 33 | 1023.8 |
| 20260503174921 | 18 | 268 | 4.8 | 6.4 | 0.00 | 0.00 | 0.00 | 35 | 1023.9 |
| 20260503174420 | 19 | 20 | 6.4 | 9.7 | 0.00 | 0.00 | 0.00 | 37 | 1024.0 |
| 20260503173920 | 18 | 288 | 9.7 | 11.3 | 0.00 | 0.00 | 0.00 | 37 | 1024.0 |
| 20260503173416 | 18 | 289 | 6.4 | 6.4 | 0.00 | 0.00 | 0.00 | 39 | 1024.0 |
| 20260503172913 | 18 | 241 | 6.4 | 6.4 | 0.00 | 0.00 | 0.00 | 38 | 1023.9 |
| 20260503172411 | 18 | 248 | 4.8 | 4.8 | 0.00 | 0.00 | 0.00 | 39 | 1024.4 |
| 20260503171907 | 17 | 177 | 3.2 | 3.2 | 0.00 | 0.00 | 0.00 | 40 | 1024.4 |
| 20260503171404 | 17 | 229 | 6.4 | 6.4 | 0.00 | 0.00 | 0.00 | 41 | 1024.3 |
| 20260503170901 | 17 | 324 | 6.4 | 6.4 | 0.00 | 0.00 | 0.00 | 44 | 1024.5 |
| 20260503170357 | 17 | 240 | 1.6 | 1.6 | 0.00 | 0.00 | 0.00 | 41 | 1024.6 |